Location: Bougoudala
(13.2282°N, 4.9477°W)
Time: 06:40:53
(UTC+00:00)

ATLAS 3B R/B - Pass Details

Date: 29 January 2020
Orbit: 1020 x 1175 km, 63.8° (Epoch: 20 February)

Event Time Altitude Azimuth Distance (km) Brightness Sun altitude
Rises 19:51:38 0° 223° (SW) 3,843 6.5 -22.5°
Reaches altitude 10° 19:54:32 10° 232° (SW) 2,867 5.8 -23.2°
Maximum altitude 20:00:35 35° 296° (WNW) 1,596 4.0 -24.6°
Drops below altitude 10° 20:06:32 10° 1° (N) 2,806 4.7 -26.0°
Enters shadow 20:07:06 - 3° (N) 2,988 4.9 -26.1°
